Station BKBF1 - 8720357 - I-295 Buckman Bridge, St Johns River, FL Image indicating link to RSS feed of recent meteorological observations for station BKBF1


Conditions at BKBF1 as of
(11:00 am EDT)
1500 GMT on 07/21/2024:
     

Click on the graph icon in the table below to see a time series plot of the last five days of that observation.

5-day plot - Wind Direction Wind Direction (WDIR):SSE ( 160 deg true )
5-day plot - Wind Speed Wind Speed (WSPD): 5.1 kts
5-day plot - Wind Gust Wind Gust (GST): 6.0 kts
5-day plot - Atmospheric Pressure Atmospheric Pressure (PRES):30.08 in
5-day plot - Pressure Tendency Pressure Tendency (PTDY):+0.00 in ( Steady )
5-day plot - Air Temperature Air Temperature (ATMP): 84.6 °F
5-day plot - Wind Speed at 10 Meters Wind Speed at 10 meters (WSPD10M): 5.8 kts
5-day plot - Wind Speed at 20 Meters Wind Speed at 20 meters (WSPD20M): 5.8 kts
5-day plot -  Wind Speed, Wind Gust and Atmospheric Pressure Combined plot of Wind Speed, Gust, and Air Pressure
NOS Water Level Observation Network Water Level
Previous observations
TIME
(EDT)
5-day plot - Wind Direction
WDIR
 
5-day plot - Wind Speed
WSPD
kts
5-day plot - Wind Gust
GST
kts
5-day plot - Wave Height
WVHT
ft
5-day plot - Dominant Wave Period
DPD
sec
5-day plot - Average Wave Period
APD
sec
5-day plot - Mean Wave Direction
MWD
 
5-day plot - Atmospheric Pressure
PRES
in
5-day plot - Pressure Tendency
PTDY
in
5-day plot - Air Temperature
ATMP
°F
5-day plot - Water Temperature
WTMP
°F
5-day plot - Dew Point
DEWP
°F
5-day plot - Salinity
SAL
psu
5-day plot - Visibility
VIS
nmi
5-day plot - Tide (above MLLW)
TIDE
ft
2024-07-21 10:54 am S 4.1 6.0----30.08- 84.4-----
2024-07-21 10:48 am S 4.1 5.1----30.08- 84.0-----
2024-07-21 10:42 am S 2.9 6.0----30.08- 83.8-----
2024-07-21 10:36 am S 4.1 5.1----30.09- 83.5-----
2024-07-21 10:30 am-------30.09- 83.3-----
2024-07-21 10:24 am-------30.09- 83.1-----
2024-07-21 10:18 am S 5.1 6.0----30.09- 83.5-----
2024-07-21 10:12 am S 5.1 6.0----30.08- 83.5-----
2024-07-21 10:06 am S 5.1 7.0----30.09- 83.1-----
2024-07-21 10:00 am S 2.9 5.1----30.09+0.02 82.6-----
2024-07-21 09:54 am S 5.1 7.0----30.09- 82.2-----
2024-07-21 09:48 am S 4.1 7.0----30.09- 81.9-----
2024-07-21 09:42 am S 5.1 7.0----30.09- 81.7-----
2024-07-21 09:36 am S 5.1 6.0----30.09- 81.1-----
2024-07-21 09:30 am S 4.1 6.0----30.09-------
2024-07-21 09:24 am S 5.1 6.0----30.09-------
2024-07-21 09:18 am-------30.09- 80.6-----
2024-07-21 09:12 am-------30.09- 80.6-----
2024-07-21 09:06 am-------30.09- 80.1-----
2024-07-21 09:00 amSSW 5.1 6.0----30.09+0.04------
2024-07-21 08:54 amSSW 2.9 5.1----30.09-------
2024-07-21 08:48 amSSW 4.1 5.1----30.08-------
2024-07-21 08:42 amSSW 5.1 6.0----30.08-------
2024-07-21 08:36 amSSW 4.1 5.1----30.08-------
2024-07-21 08:30 am SW 2.9 5.1----30.08- 79.0-----
2024-07-21 08:24 amSSW 4.1 6.0----30.08- 78.8-----
2024-07-21 08:18 amSSW 4.1 5.1------------
2024-07-21 08:12 am SW 2.9 5.1------------
2024-07-21 08:06 amSSW 2.9 5.1------------
2024-07-21 08:00 am SW 2.9 5.1----30.08- 77.7-----
2024-07-21 07:54 am SW 2.9 5.1----30.08- 77.4-----
2024-07-21 07:48 am SW 2.9 5.1----30.07-------
2024-07-21 07:42 am SW 1.9 5.1----30.07-------
2024-07-21 07:36 am SW 4.1 5.1----30.07-------
2024-07-21 07:30 amWSW 2.9 5.1----30.07-------
2024-07-21 07:24 am W 1.9 4.1----30.06-------
2024-07-21 07:18 am W 2.9 5.1----30.06- 75.9-----
2024-07-21 07:12 amWSW 4.1 5.1----30.06- 75.9-----
2024-07-21 07:06 am SW 2.9 5.1----30.06- 75.4-----
2024-07-21 07:00 am-------30.06+0.01 75.2-----
2024-07-21 06:54 am-------30.06- 75.2-----
2024-07-21 06:48 amWSW 1.0 2.9----30.06- 75.0-----
2024-07-21 06:42 amWSW 2.9 4.1----30.06- 75.0-----
2024-07-21 06:36 amWSW 2.9 4.1----30.06- 75.0-----
2024-07-21 06:30 amWSW 2.9 4.1----30.05- 75.0-----
2024-07-21 06:24 amWSW 2.9 5.1----30.05- 75.0-----
2024-07-21 06:18 am SW 2.9 4.1----30.05- 75.4-----
2024-07-21 06:12 am SW 2.9 4.1----30.05- 75.0-----
2024-07-21 06:06 amWSW 1.9 4.1----30.05- 75.0-----
2024-07-21 06:00 am SW 1.9 4.1----30.04-0.03 75.0-----
2024-07-21 05:54 amWSW 1.9 4.1----30.04- 75.0-----
2024-07-21 05:48 amWSW 2.9 4.1----30.04- 74.8-----
2024-07-21 05:42 amWSW 2.9 4.1----30.04- 75.0-----
2024-07-21 05:36 amWSW 2.9 5.1----30.04- 75.0-----
2024-07-21 05:30 am-------30.04- 74.8-----
2024-07-21 05:24 am-------30.03- 74.8-----
2024-07-21 05:18 amWSW 1.9 4.1----30.03- 75.0-----
2024-07-21 05:12 amWSW 1.9 4.1----30.03- 75.4-----
2024-07-21 05:06 amWSW 2.9 4.1----30.03- 75.2-----
2024-07-21 05:00 amWSW 2.9 4.1------ 75.4-----
2024-07-21 04:54 amWSW 1.9 4.1------ 75.6-----
2024-07-21 04:48 am W 1.9 2.9----30.03- 75.4-----
2024-07-21 04:42 amWSW 1.9 4.1----30.03- 75.4-----
2024-07-21 04:36 am W 1.9 4.1----30.03- 75.6-----
2024-07-21 04:30 amWSW 2.9 5.1----30.04- 75.9-----
2024-07-21 04:24 am SW 4.1 5.1----30.04- 75.6-----
2024-07-21 04:18 am SW 2.9 5.1----30.04- 75.7-----
2024-07-21 04:12 amWSW 4.1 5.1----30.05- 75.7-----
2024-07-21 04:06 am SW 2.9 6.0----30.05- 75.7-----
2024-07-21 04:00 amWSW 4.1 6.0----30.05-0.05 76.1-----
2024-07-21 03:54 amWSW 2.9 6.0----30.05- 76.1-----
2024-07-21 03:48 amWSW 2.9 5.1----30.05- 76.1-----
2024-07-21 03:42 amWSW 4.1 6.0----30.06- 76.5-----
2024-07-21 03:36 amSSW 5.1 7.0----30.06- 76.8-----
2024-07-21 03:30 am SW 5.1 7.0----30.06- 77.0-----
2024-07-21 03:24 am SW 5.1 8.0----30.06- 77.0-----
2024-07-21 03:18 am SW 6.0 8.9----30.07- 76.8-----
2024-07-21 03:12 amSSW 5.1 8.9----30.07- 77.7-----
2024-07-21 03:06 am S 5.1 8.9----30.07- 77.2-----
2024-07-21 03:00 am S 5.1 8.0----30.08-0.04 77.0-----
2024-07-21 02:54 amSSE 5.1 8.0----30.08- 76.6-----
2024-07-21 02:48 amSSE 5.1 7.0----30.08- 76.6-----
2024-07-21 02:42 am SE 6.0 7.0----30.08- 76.6-----
2024-07-21 02:36 am SE 6.0 8.0----30.08- 76.6-----
2024-07-21 02:30 amSSE 7.0 9.9----30.09- 76.6-----
2024-07-21 02:24 amSSE 7.0 12.0----30.09- 77.2-----
2024-07-21 02:18 am S 8.9 12.0----30.09-------
2024-07-21 02:12 am S 7.0 8.9----30.09-------
2024-07-21 02:06 am S 7.0 8.9----30.09-------
2024-07-21 02:00 amSSE 8.0 9.9----30.09-0.05------
2024-07-21 01:54 amSSE 8.0 9.9----30.09-------
2024-07-21 01:48 amSSE 7.0 8.9----30.10- 76.6-----
2024-07-21 01:42 amSSE 8.0 9.9----30.10- 76.6-----
2024-07-21 01:36 amSSE 8.0 9.9----30.10- 76.6-----
2024-07-21 01:30 am SE 8.0 11.1----30.10-------
2024-07-21 01:24 am SE 8.9 12.0----30.10-------
2024-07-21 01:18 am SE 8.9 11.1----30.10- 77.7-----
2024-07-21 01:12 am SE 8.9 12.0----30.10- 78.3-----
2024-07-21 01:06 amSSE 7.0 12.0----30.10- 78.4-----
2024-07-21 01:00 amSSE 8.0 11.1----30.10-0.01 78.3-----
2024-07-21 12:54 am S 8.9 12.0----30.10- 78.3-----
2024-07-21 12:48 am S 6.0 8.9----30.11- 77.5-----
2024-07-21 12:42 amSSW 6.0 8.9----30.11- 76.8-----
2024-07-21 12:36 amSSW 8.0 9.9----30.11- 77.0-----
2024-07-21 12:30 am-------30.11- 77.4-----
2024-07-21 12:24 am-------30.11- 77.0-----
2024-07-21 12:18 am-------30.11- 77.4-----
2024-07-21 12:12 am-------30.12- 77.7-----
2024-07-21 12:06 am-------30.12- 77.7-----
2024-07-21 12:00 amSSW 7.0 13.0----30.12-0.01 78.4-----
2024-07-20 11:54 pm S 9.9 14.0----30.12- 78.3-----
2024-07-20 11:48 pm S 9.9 15.9----30.12- 78.1-----
2024-07-20 11:42 pm S 9.9 12.0----30.12- 77.5-----
2024-07-20 11:36 pm S 8.9 13.0----30.12- 77.4-----
2024-07-20 11:30 pm--------- 77.5-----
2024-07-20 11:24 pm--------- 77.7-----
2024-07-20 11:18 pmSSE 11.1 15.0----30.12-------
2024-07-20 11:12 pm S 12.0 17.1----30.13-------
2024-07-20 11:06 pm S 14.0 18.1----30.14-------
2024-07-20 11:00 pmSSE 14.0 20.0----30.14+0.04 78.3-----
2024-07-20 10:54 pmSSE 13.0 17.1----30.14- 77.7-----
2024-07-20 10:48 pmSSE 12.0 15.9----30.14- 78.1-----
2024-07-20 10:42 pm SE 9.9 13.0----30.12- 77.9-----
2024-07-20 10:36 pm SE 11.1 13.0----30.12- 78.3-----
2024-07-20 10:30 pmESE 7.0 9.9----30.11- 78.1-----
2024-07-20 10:24 pm SE 8.9 11.1----30.11- 77.7-----
2024-07-20 10:18 pm E 9.9 11.1----30.11- 77.7-----
2024-07-20 10:12 pm E 8.9 11.1----30.11- 77.5-----
2024-07-20 10:06 pm E 8.9 11.1----30.11- 78.4-----
2024-07-20 10:00 pmENE 9.9 12.0----30.12+0.05 78.4-----
2024-07-20 09:54 pm NE 9.9 12.0----30.12- 78.8-----
2024-07-20 09:48 pmNNE 7.0 8.0----30.12- 77.9-----
2024-07-20 09:42 pmNNE 6.0 8.0----30.13- 77.5-----
2024-07-20 09:36 pm N 6.0 7.0----30.13- 77.2-----
2024-07-20 09:30 pm N 5.1 6.0----30.13-------
2024-07-20 09:24 pm N 5.1 7.0----30.14-------
2024-07-20 09:18 pm N 6.0 8.9----30.14- 77.4-----
2024-07-20 09:12 pm N 5.1 8.9----30.13- 77.2-----
2024-07-20 09:06 pm N 6.0 8.9----30.13- 77.2-----
2024-07-20 09:00 pm N 5.1 8.0----30.13+0.11 77.0-----
2024-07-20 08:54 pm N 6.0 8.9----30.13- 76.8-----
2024-07-20 08:48 pmNNW 6.0 8.0----30.12- 77.0-----
2024-07-20 08:42 pm N 5.1 7.0----30.13- 76.8-----
2024-07-20 08:36 pmNNW 5.1 7.0----30.12- 76.6-----
2024-07-20 08:30 pm NW 1.0 4.1----30.12- 77.9-----
2024-07-20 08:24 pmENE 1.9 6.0----30.11- 77.9-----
2024-07-20 08:18 pm SE 5.1 8.0----30.11- 78.3-----
2024-07-20 08:12 pm SE 5.1 8.9----30.11- 78.4-----
2024-07-20 08:06 pmSSE 8.0 11.1----30.11- 78.8-----
2024-07-20 08:00 pmSSE 6.0 9.9----30.11+0.08 79.3-----
2024-07-20 07:54 pm SE 6.0 8.9----30.10- 78.8-----
2024-07-20 07:48 pm SE 7.0 11.1----30.10- 78.6-----
2024-07-20 07:42 pm SE 8.0 9.9----30.09- 78.4-----
2024-07-20 07:36 pm SE 5.1 7.0----30.09- 79.2-----
2024-07-20 07:30 pm E 4.1 7.0----30.08- 78.4-----
2024-07-20 07:24 pmESE 5.1 6.0----30.09- 78.1-----
2024-07-20 07:18 pmSSE 6.0 15.0----30.09- 78.4-----
2024-07-20 07:12 pmSSE 7.0 9.9----30.08- 81.0-----
2024-07-20 07:06 pmENE 5.1 8.0----30.07- 79.5-----
2024-07-20 07:00 pm SE 4.1 7.0----30.06- 79.5-----
2024-07-20 06:54 pm E 7.0 11.1----30.08- 78.4-----
2024-07-20 06:48 pmESE 8.0 12.0----30.07- 77.9-----
2024-07-20 06:42 pm N 4.1 6.0----30.06- 76.1-----
2024-07-20 06:36 pmSSE 1.9 5.1----30.07- 76.5-----
2024-07-20 06:30 pm NW 2.9 9.9----30.07-------
2024-07-20 06:24 pm W 8.0 21.0----30.08-------
2024-07-20 06:18 pmWSW 20.0 28.9----30.08- 75.7-----
2024-07-20 06:12 pm SW 12.0 18.1----30.08- 80.6-----
2024-07-20 06:06 pm S 6.0 9.9----30.04- 88.3-----
2024-07-20 06:00 pm E 8.0 11.1----30.02-0.04 87.8-----
2024-07-20 05:54 pm E 12.0 13.0----30.01- 88.0-----
2024-07-20 05:48 pm E 12.0 15.9----30.01- 87.8-----
2024-07-20 05:42 pm E 11.1 13.0----30.02- 88.7-----
2024-07-20 05:36 pmESE 11.1 13.0----30.02- 89.2-----
2024-07-20 05:30 pmESE 8.9 15.0----30.02-------
2024-07-20 05:24 pmESE 12.0 15.0----30.03-------
2024-07-20 05:18 pm SE 9.9 12.0----30.03- 89.4-----
2024-07-20 05:12 pmESE 12.0 15.0----30.02- 89.6-----
2024-07-20 05:06 pm SE 9.9 14.0----30.03- 89.8-----
2024-07-20 05:00 pm SE 12.0 15.0----30.02-0.06------
2024-07-20 04:54 pm SE 6.0 11.1----30.03-------
2024-07-20 04:48 pm SE 9.9 12.0----30.03-------
2024-07-20 04:42 pm SE 6.0 8.0----30.03-------
2024-07-20 04:36 pm S 5.1 7.0----30.03-------
2024-07-20 04:30 pm S 5.1 6.0----30.03- 93.0-----
2024-07-20 04:24 pm S 5.1 6.0----30.04- 93.0-----
2024-07-20 04:18 pm S 5.1 7.0----30.04- 92.8-----
2024-07-20 04:12 pm S 5.1 7.0----30.04- 92.8-----
2024-07-20 04:06 pm S 5.1 6.0----30.04- 92.8-----
2024-07-20 04:00 pm S 4.1 6.0------ 93.0-----
2024-07-20 03:54 pm S 5.1 6.0------ 92.5-----
2024-07-20 03:48 pm S 4.1 5.1----30.04-------
2024-07-20 03:42 pm S 5.1 5.1----30.04-------
2024-07-20 03:36 pm S 5.1 6.0----30.05-------
2024-07-20 03:30 pm S 5.1 7.0----30.05- 92.5-----
2024-07-20 03:24 pm S 5.1 6.0----30.05- 92.8-----
2024-07-20 03:18 pm S 4.1 5.1----30.05- 92.8-----
2024-07-20 03:12 pm S 5.1 6.0----30.06- 92.7-----
2024-07-20 03:06 pmSSE 5.1 5.1----30.06- 92.5-----
2024-07-20 03:00 pmSSE 4.1 5.1----30.06-0.05 91.8-----
2024-07-20 02:54 pm SE 4.1 5.1----30.06- 91.4-----
2024-07-20 02:48 pmSSE 4.1 5.1----30.07-------
2024-07-20 02:42 pmSSE 4.1 5.1----30.07-------
2024-07-20 02:36 pmSSE 2.9 5.1----30.07-------
2024-07-20 02:30 pmSSE 4.1 5.1----30.08- 91.9-----
2024-07-20 02:24 pmSSE 4.1 5.1----30.08- 91.8-----
2024-07-20 02:18 pmSSE 5.1 5.1----30.08- 91.2-----
2024-07-20 02:12 pm SE 4.1 6.0----30.08- 90.3-----
2024-07-20 02:06 pm SE 4.1 5.1----30.09- 90.1-----
2024-07-20 02:00 pmSSE 4.1 5.1----30.09-0.03 90.3-----
2024-07-20 01:54 pm SE 2.9 5.1----30.09- 89.4-----
2024-07-20 01:48 pmESE 5.1 5.1----30.09- 88.9-----
2024-07-20 01:42 pm SE 4.1 5.1----30.09- 89.1-----
2024-07-20 01:36 pm SE 4.1 5.1----30.09- 88.9-----
2024-07-20 01:30 pm SE 4.1 5.1----30.09- 88.9-----
2024-07-20 01:24 pm SE 4.1 5.1----30.09- 88.7-----
2024-07-20 01:18 pm SE 4.1 5.1----30.10- 88.7-----
2024-07-20 01:12 pm SE 5.1 6.0----30.10- 88.7-----
2024-07-20 01:06 pmSSE 5.1 6.0----30.10- 88.9-----
2024-07-20 01:00 pm SE 5.1 6.0----30.11+0.00 88.2-----
2024-07-20 12:54 pmSSE 5.1 6.0----30.11- 88.2-----
2024-07-20 12:48 pm SE 4.1 6.0----30.11-------
2024-07-20 12:42 pmSSE 5.1 6.0----30.11-------
2024-07-20 12:36 pmSSE 5.1 6.0----30.11-------
2024-07-20 12:30 pmSSE 5.1 6.0----30.11- 87.1-----
2024-07-20 12:24 pmSSE 5.1 6.0----30.11- 87.1-----
2024-07-20 12:18 pmSSE 5.1 6.0----30.11- 86.7-----
2024-07-20 12:12 pm SE 4.1 5.1----30.11- 86.2-----
2024-07-20 12:06 pmSSE 2.9 5.1----30.11- 86.7-----
2024-07-20 12:00 pmSSE 4.1 5.1----30.11+0.01------
2024-07-20 11:54 amSSE 2.9 4.1----30.11-------
2024-07-20 11:48 am SE 2.9 5.1----30.11-------
2024-07-20 11:42 amSSE 4.1 5.1----30.11-------
2024-07-20 11:36 am S 1.9 2.9----30.12-------
2024-07-20 11:30 amSSE 1.9 5.1----30.12- 85.8-----
2024-07-20 11:24 amSSE 2.9 5.1----30.12- 85.5-----
2024-07-20 11:18 amSSE 4.1 6.0----30.12- 85.1-----
2024-07-20 11:12 amSSE 5.1 7.0----30.12- 84.7-----
2024-07-20 11:06 amSSE 4.1 6.0----30.12- 84.7-----
2024-07-20 11:00 amSSE 5.1 7.0----30.12+0.02 84.2-----
2024-07-20 10:54 amSSE 5.1 7.0----30.12- 84.4-----